Home > Weather > Marengo > Past weeks

Flag for USA Past Weather in Marengo, Indiana, USA — Yesterday and Last 2 Weeks

Now
84 °F

Sunny.


Feels Like: 86 °F
Forecast: 69 / 91 °F
Wind: No wind

Location: Bowling Green-Warren County Regional Airport

Current Time: Jun 24, 2016 at 9:42:55 PM

Latest Report: Jun 24, 2016 at 8:53 PM


Visibility: 10 mi

Pressure: 30.01 "Hg

Humidity: 53%

Dew Point: 65 °F

Location of MarengoLocation

Past Weather in Marengo — Graph

°F

Marengo Temperature Yesterday

Maximum temperature yesterday: 94 °F (at 3:53 PM)
Minimum temperature yesterday: 74 °F (at 10:48 PM)
Average temperature yesterday: 85 °F

High & Low Weather Summary for the Past Weeks

 TemperatureHumidityPressure
High95 °F (Jun 13, 3:53 PM)94% (Jun 11, 5:53 AM)30.29 "Hg (Jun 11, 5:53 AM)
Low60 °F (Jun 10, 5:53 AM)34% (Jun 10, 3:53 PM)29.78 "Hg (Jun 16, 5:53 PM)
Average80 °F69%30.01 "Hg
* Reported Jun 9 7:53 PM — Jun 24 7:53 PM, Marengo, Weather by CustomWeather, © 2016

Note: Actual official high and low records may vary slightly from our data, if they occured in-between our weather recording intervals... More about our weather records

Advertising

Marengo Weather History for the Previous 24 Hours

Scroll right to see more
 ConditionsComfort  
Time TempWeatherWind HumidityBarometerVisibility
7:53 PM
Fri, Jun 24
86 °FSunny.5 mph53%30.01 "Hg10 mi
6:53 PM86 °FSunny.5 mph53%30.01 "Hg10 mi
5:53 PM89 °FPassing clouds.9 mph48%30.02 "Hg10 mi
4:53 PM89 °FSunny.7 mph48%30.02 "Hg10 mi
3:53 PM89 °FPassing clouds.8 mph50%30.03 "Hg10 mi
2:53 PM88 °FPassing clouds.9 mph57%30.02 "Hg10 mi
1:53 PM86 °FBroken clouds.5 mph67%30.02 "Hg10 mi
12:53 PM82 °FMostly cloudy.8 mph77%30.04 "Hg10 mi
11:53 AM79 °FOvercast.5 mph79%30.04 "Hg10 mi
10:53 AM78 °FMostly cloudy.3 mph79%30.02 "Hg10 mi
9:53 AM75 °FMostly cloudy.8 mph82%30.03 "Hg10 mi
8:53 AM74 °FPartly sunny.8 mph82%30.02 "Hg10 mi
7:53 AM74 °FPassing clouds.6 mph85%30.00 "Hg10 mi
6:53 AM72 °FSunny.5 mph87%29.97 "Hg10 mi
5:53 AM73 °FClear.7 mph88%29.94 "Hg10 mi
4:53 AM73 °FClear.7 mph88%29.95 "Hg10 mi
3:53 AM73 °FClear.8 mph84%29.95 "Hg10 mi
2:53 AM72 °FClear.6 mph87%29.94 "Hg10 mi
2:01 AM72 °FThundershowers. Passing clouds.9 mph91%29.95 "Hg10 mi
1:04 AM73 °FThunderstorms. Mostly cloudy.16 mph81%30.01 "Hg10 mi
12:53 AM75 °FThundershowers. Partly cloudy.25 mph79%29.99 "Hg10 mi
11:53 PM
Thu, Jun 23
76 °FPassing clouds.9 mph88%29.94 "Hg10 mi
10:48 PM74 °FThunderstorms. Overcast.12 mph88%29.94 "Hg10 mi
9:53 PM84 °FThunderstorms. Mostly cloudy.14 mph70%29.90 "Hg10 mi
Weather by CustomWeather, © 2016

See weather overviewHow to use our weather pages